Wind_Speed
79 75 73 70 78 80 73 70 71 67 66 62 61 66 62 58 61 53 51 44 44 43 44 44 45 48 52 52 55 50 51 49 53 50 49 51 49 40 38 39 42 44 45 43
83 83 82 77 81 76 73 76 75 74 69 64 66 67 70 64 62 60 58 56 58 58 55 54 53 56 60 60 58 59 55 51 52 52 49 50 50 41 37 39 43 44 45 40
83 89 80 83 81 80 79 73 77 77 71 64 67 73 68 63 60 62 65 58 59 58 59 61 60 61 58 57 55 52 48 55 56 50 50 47 49 43 37 39 42 44 44 40
82 76 75 69 79 74 72 73 71 75 76 70 68 70 73 70 63 60 59 62 63 63 63 64 61 59 62 62 60 50 53 54 56 51 51 45 48 45 39 38 41 43 43 40
78 75 75 72 80 76 74 77 75 73 71 73 74 72 73 70 68 64 68 63 61 64 65 66 62 62 58 63 64 54 58 55 53 54 53 45 48 45 40 38 39 42 42 39
89 87 81 84 79 78 75 81 81 79 71 66 68 66 73 70 73 68 67 65 63 63 63 65 67 68 69 68 61 58 60 60 56 59 55 47 47 47 42 40 39 41 42 40
89 89 82 79 78 85 84 81 73 77 71 72 79 75 75 72 71 71 66 61 65 73 75 76 73 74 64 61 58 60 63 64 64 59 55 49 45 48 45 43 43 43 43 41
89 94 96 93 83 78 83 90 87 76 69 75 77 71 70 77 76 75 78 79 83 79 73 71 68 65 63 64 63 67 69 71 64 59 57 51 47 47 45 45 45 44 44 42
87 90 92 92 94 93 83 80 80 72 72 72 78 73 75 78 80 83 80 75 73 71 63 63 64 65 69 70 68 72 75 63 60 59 54 53 49 48 48 45 46 46 45 44
100 94 92 91 92 94 95 91 83 82 81 82 77 76 75 75 79 79 79 72 72 66 69 72 69 69 70 73 76 69 61 57 61 60 56 52 53 51 51 48 47 47 47 45
106 99 96 96 87 85 90 98 96 92 81 82 82 80 80 78 76 72 74 74 76 77 79 80 82 79 76 80 81 66 61 56 58 62 58 55 56 55 54 53 51 51 50 48
110 113 103 97 95 94 93 93 90 85 80 80 84 83 78 81 82 82 83 89 88 88 88 85 85 83 82 81 76 67 59 58 54 61 62 59 59 58 57 56 56 55 53 52
108 114 108 106 104 100 96 92 91 91 93 89 86 81 83 82 83 85 86 88 90 88 85 85 82 81 76 75 67 61 61 62 62 60 64 64 63 62 61 59 59 58 57 55
107 111 108 106 103 103 101 100 99 100 98 96 96 93 88 86 86 87 87 88 87 86 87 84 82 81 78 73 68 65 64 64 65 66 68 69 69 68 67 66 65 63 63 61
104 102 101 103 103 104 101 101 97 98 96 94 91 93 93 90 87 84 84 84 83 83 83 83 82 82 81 77 74 72 70 70 70 71 72 74 75 74 72 71 70 69 68 66
103 100 99 98 99 98 96 94 94 94 92 91 91 90 91 91 91 90 89 88 87 87 86 86 86 85 85 83 82 81 80 79 79 78 79 79 79 79 79 77 76 75 73 72
105 103 101 100 98 97 96 95 95 95 94 92 91 90 89 89 90 91 91 92 91 90 90 90 90 90 89 90 90 90 89 89 88 87 87 86 86 85 84 83 82 82 81 79
104 102 101 101 99 98 95 95 96 97 97 96 95 94 94 93 93 93 93 93 94 95 95 95 95 95 95 94 94 94 94 95 96 95 95 93 93 92 91 89 87 86 86 84
111 108 105 104 102 100 98 96 97 97 98 98 98 98 98 98 98 99 100 100 100 100 100 100 100 100 100 101 101 100 99 98 98 98 98 98 98 98 98 98 96 95 94 93
112 112 113 111 110 107 103 105 105 105 102 103 104 105 106 106 106 106 105 104 104 105 105 106 105 105 104 104 104 104 103 103 104 104 103 103 103 102 102 102 102 100 98 98
114 114 114 115 115 112 109 110 111 112 111 112 112 112 113 113 114 113 113 113 113 112 112 112 111 111 110 110 109 109 108 108 108 109 109 109 109 109 109 109 109 108 106 105
103 105 109 114 115 116 113 114 116 116 115 114 114 116 117 118 119 120 119 119 119 120 120 120 119 119 119 119 119 118 118 118 117 117 116 115 114 114 113 112 112 112 112 112
103 106 107 107 106 107 107 110 111 113 114 112 113 114 115 118 120 123 125 125 124 124 125 126 127 128 128 127 127 126 126 126 125 125 125 124 123 122 121 119 118 116 116 116
89 92 95 101 105 109 110 110 111 111 112 113 114 115 116 118 119 121 122 123 124 125 126 127 128 130 133 135 135 134 132 131 133 133 133 132 130 131 131 130 129 128 126 123
85 88 91 92 94 96 99 101 104 107 111 114 117 119 121 123 125 127 128 129 130 131 131 132 134 136 136 136 136 136 136 136 137 136 136 135 133 131 130 130 130 129 128 128
84 86 88 90 92 94 96 97 99 101 103 105 108 110 113 115 118 121 123 125 128 130 132 134 137 139 139 140 142 142 141 142 142 143 144 144 144 143 141 139 138 139 137 138
Wind_Direction
212 215 216 222 221 221 226 231 232 238 238 240 243 250 249 250 258 257 263 266 269 275 278 280 284 285 294 298 303 307 315 316 319 313 308 305 306 304 307 310 313 318 323 328
216 216 222 223 219 223 226 231 233 235 241 240 244 249 251 255 258 258 262 265 271 277 277 279 281 285 292 296 300 304 310 312 314 313 305 303 303 301 304 307 310 315 320 324
221 221 224 224 225 226 228 234 235 238 239 240 242 249 253 255 260 263 262 265 270 275 278 280 282 286 292 295 298 305 303 308 310 314 305 300 300 299 300 303 307 311 317 321
224 229 227 231 226 231 233 234 237 241 240 243 245 250 254 256 260 262 263 269 270 275 277 278 284 283 287 293 299 297 301 304 305 306 304 295 296 298 296 300 304 309 313 319
218 220 222 227 223 230 236 239 239 239 244 247 250 250 256 259 259 260 262 269 275 274 274 276 277 284 286 291 296 291 295 300 303 303 299 292 292 295 294 296 299 304 309 315
221 221 226 230 229 229 230 234 236 239 243 242 248 253 257 260 257 260 263 267 268 270 274 275 278 285 282 286 287 285 291 296 299 303 296 286 287 291 291 292 294 298 304 311
224 224 227 230 232 232 231 234 236 240 246 247 249 256 254 257 260 259 262 261 264 275 278 279 277 280 283 280 280 282 288 291 295 294 286 282 281 285 287 289 292 295 300 308
224 227 229 231 231 232 235 236 242 244 248 245 248 251 252 257 259 259 261 264 266 270 276 277 277 279 277 276 279 287 286 289 290 288 282 281 278 281 285 288 290 292 296 303
225 230 233 236 235 238 239 238 238 241 241 246 248 249 252 257 263 263 264 269 270 271 267 268 272 271 271 275 281 286 288 289 285 279 276 278 276 277 280 284 285 287 291 298
229 229 232 236 237 239 239 243 246 246 247 249 253 255 258 261 265 268 269 269 269 260 263 263 266 271 271 276 279 285 284 283 281 276 273 274 275 276 278 281 282 284 287 291
227 228 230 234 235 235 241 246 247 250 250 251 255 259 260 263 263 263 260 259 264 262 263 267 271 272 271 275 280 278 283 279 277 275 270 270 270 273 276 278 279 282 283 285
229 232 233 234 237 240 238 240 243 243 244 249 252 255 255 257 258 256 257 259 262 265 263 264 266 266 268 272 273 279 275 269 269 269 266 266 268 270 272 274 276 278 280 283
232 232 234 236 239 242 244 246 246 245 246 250 251 254 250 250 253 254 255 258 261 264 266 268 269 270 269 271 270 270 267 265 263 264 263 264 266 268 269 271 273 275 276 277
233 235 236 237 239 243 245 246 248 251 254 255 257 257 258 255 253 255 257 258 259 262 264 266 269 269 270 269 268 263 258 259 261 262 262 262 264 266 267 269 271 273 274 276
233 234 236 238 240 242 243 245 249 251 251 253 253 256 256 256 256 254 254 257 258 259 261 263 264 266 267 267 266 264 261 260 260 257 258 259 260 262 265 267 269 270 272 274
236 236 238 239 240 242 243 245 247 250 251 252 252 253 255 256 256 256 256 257 258 259 260 262 263 264 265 265 265 264 264 262 261 260 260 260 260 261 263 265 266 268 270 272
239 240 242 243 243 244 246 247 248 250 251 251 252 253 253 254 254 256 257 258 259 259 260 260 261 262 263 264 265 265 264 264 263 263 263 262 263 263 262 263 265 267 269 270
240 242 243 245 247 248 249 249 250 251 253 255 256 256 256 256 257 257 257 257 258 259 259 260 261 261 262 262 262 263 263 264 265 265 265 265 265 266 266 266 267 267 268 269
241 243 244 245 247 248 249 250 252 254 255 256 257 258 259 259 259 260 260 259 259 260 260 260 261 262 262 262 262 262 262 262 263 264 265 265 266 266 266 266 267 267 267 268
243 245 247 247 247 248 249 250 251 253 254 256 257 258 259 261 262 262 263 263 262 262 262 262 261 261 261 261 261 261 262 263 263 263 263 263 263 264 265 266 267 267 267 267
242 245 246 248 249 251 251 252 254 255 255 256 257 258 259 260 261 262 263 263 263 264 263 263 263 262 262 262 262 262 263 263 264 263 263 263 263 263 263 264 264 265 266 266
244 246 248 249 250 250 251 252 254 255 255 256 258 260 261 261 261 260 261 262 263 263 263 264 264 264 264 264 263 263 263 263 263 263 263 263 263 263 263 263 263 264 265 265
244 245 247 249 250 251 252 253 254 255 255 256 257 258 259 260 261 261 261 262 262 263 264 264 265 265 264 264 265 265 265 264 264 263 263 263 264 264 263 264 263 263 263 262
245 247 248 249 250 251 253 254 255 257 257 258 258 258 259 260 260 261 262 262 263 264 265 265 265 265 265 265 265 264 264 264 265 265 265 264 264 264 264 264 263 262 261 260
246 247 248 250 251 252 253 253 255 256 257 259 260 261 262 263 263 264 264 265 265 266 266 266 267 267 267 267 267 266 266 265 265 265 265 264 263 263 263 263 262 261 261 260
246 248 249 251 253 254 255 256 257 258 258 259 260 261 262 263 264 264 265 266 266 267 268 268 268 268 269 269 269 269 269 269 269 269 269 269 268 268 266 264 263 261 261 261
Height
10668 10678 10686 10687 10694 10705 10716 10724 10732 10741 10746 10752 10754 10753 10756 10762 10764 10770 10773 10774 10774 10776 10776 10775 10775 10774 10774 10774 10772 10770 10767 10763 10759 10753 10748 10744 10740 10735 10730 10725 10719 10715 10708 10701
10655 10663 10663 10675 10689 10698 10704 10712 10721 10729 10737 10743 10744 10740 10743 10754 10757 10758 10763 10765 10764 10766 10766 10766 10766 10765 10765 10764 10763 10762 10760 10756 10752 10747 10741 10738 10734 10729 10725 10719 10714 10710 10704 10698
10640 10646 10659 10670 10679 10687 10693 10701 10708 10720 10727 10731 10732 10729 10731 10743 10749 10748 10751 10755 10755 10756 10756 10755 10755 10754 10754 10754 10754 10754 10751 10748 10745 10740 10735 10731 10728 10723 10719 10714 10709 10705 10700 10694
10630 10640 10652 10660 10668 10676 10682 10689 10699 10708 10714 10721 10721 10719 10719 10731 10737 10740 10741 10744 10746 10745 10744 10744 10743 10744 10744 10744 10744 10744 10742 10739 10736 10732 10727 10723 10720 10717 10712 10708 10704 10699 10695 10690
10617 10626 10637 10645 10651 10663 10669 10677 10687 10695 10702 10707 10709 10711 10707 10718 10723 10728 10731 10732 10733 10733 10732 10732 10733 10733 10734 10734 10735 10734 10731 10729 10726 10723 10718 10715 10712 10709 10706 10702 10699 10694 10690 10686
10609 10616 10627 10636 10644 10651 10657 10665 10673 10681 10689 10697 10695 10701 10694 10705 10709 10715 10718 10720 10721 10720 10720 10720 10722 10723 10724 10723 10723 10723 10722 10719 10716 10713 10709 10705 10704 10702 10698 10695 10692 10689 10684 10681
10595 10603 10612 10622 10631 10640 10645 10651 10659 10670 10677 10688 10682 10690 10690 10689 10694 10701 10705 10707 10709 10708 10707 10707 10709 10712 10712 10713 10711 10710 10709 10708 10705 10701 10697 10695 10694 10694 10691 10688 10685 10682 10678 10676
10583 10591 10598 10608 10618 10625 10632 10640 10649 10659 10664 10672 10670 10680 10680 10673 10679 10686 10691 10694 10695 10695 10694 10694 10694 10697 10698 10700 10700 10699 10697 10695 10692 10688 10686 10685 10684 10684 10683 10680 10678 10674 10672 10669
10568 10579 10585 10593 10602 10611 10619 10627 10633 10641 10651 10656 10661 10665 10665 10663 10662 10668 10673 10677 10680 10680 10678 10680 10683 10686 10686 10686 10686 10685 10685 10682 10679 10675 10672 10675 10674 10674 10673 10671 10669 10666 10664 10661
10557 10566 10572 10579 10586 10597 10605 10608 10618 10627 10635 10641 10647 10648 10652 10651 10650 10649 10653 10660 10663 10665 10667 10668 10669 10671 10672 10672 10672 10671 10671 10668 10666 10663 10663 10663 10664 10663 10662 10660 10658 10657 10654 10652
10539 10549 10557 10565 10576 10580 10587 10595 10603 10609 10619 10626 10631 10635 10633 10637 10639 10638 10635 10640 10646 10651 10653 10654 10654 10654 10655 10656 10656 10656 10656 10655 10653 10652 10651 10651 10651 10651 10650 10648 10647 10646 10645 10643
10524 10534 10542 10551 10557 10565 10574 10582 10587 10595 10604 10608 10613 10619 10619 10620 10623 10625 10625 10623 10624 10627 10631 10634 10636 10637 10638 10640 10641 10640 10638 10638 10636 10638 10638 10638 10638 10637 10637 10636 10634 10634 10633 10633
10508 10519 10528 10537 10546 10555 10563 10568 10572 10578 10584 10595 10598 10606 10602 10603 10603 10607 10609 10610 10609 10608 10608 10610 10612 10616 10618 10620 10623 10623 10622 10621 10620 10621 10622 10622 10622 10623 10622 10622 10621 10621 10621 10620
10490 10501 10511 10521 10530 10534 10542 10547 10551 10556 10566 10574 10581 10584 10585 10587 10589 10588 10589 10591 10591 10592 10591 10592 10592 10593 10596 10599 10602 10605 10604 10605 10605 10604 10605 10607 10607 10607 10607 10607 10606 10605 10606 10606
10474 10485 10495 10503 10513 10520 10526 10529 10533 10538 10545 10552 10555 10559 10564 10569 10571 10570 10569 10569 10569 10571 10573 10574 10575 10575 10576 10578 10581 10583 10585 10586 10587 10587 10587 10589 10590 10590 10590 10590 10590 10589 10590 10590
10460 10470 10477 10485 10493 10500 10505 10510 10513 10520 10526 10532 10533 10537 10542 10545 10548 10549 10549 10549 10550 10551 10552 10553 10555 10556 10558 10559 10561 10562 10564 10565 10566 10568 10569 10569 10570 10572 10572 10572 10572 10572 10572 10572
10443 10453 10461 10467 10475 10480 10487 10494 10497 10501 10505 10509 10512 10515 10519 10522 10525 10526 10527 10528 10530 10532 10533 10533 10535 10536 10537 10538 10538 10538 10540 10541 10543 10544 10545 10546 10546 10548 10550 10551 10552 10552 10552 10553
10425 10434 10441 10446 10454 10459 10471 10472 10477 10479 10482 10485 10488 10491 10495 10497 10500 10503 10504 10507 10508 10509 10510 10511 10512 10512 10513 10514 10515 10515 10516 10516 10517 10518 10520 10521 10521 10522 10524 10527 10529 10530 10531 10532
10406 10414 10420 10426 10433 10442 10450 10453 10455 10457 10461 10463 10465 10467 10469 10471 10473 10476 10479 10481 10483 10484 10484 10485 10486 10488 10489 10488 10488 10489 10490 10492 10493 10494 10494 10494 10494 10495 10495 10497 10501 10504 10506 10507
10387 10390 10397 10405 10410 10419 10431 10432 10433 10433 10442 10440 10440 10441 10443 10445 10447 10449 10451 10453 10455 10455 10456 10457 10458 10459 10460 10459 10459 10460 10462 10463 10464 10465 10467 10467 10467 10468 10467 10468 10469 10473 10477 10479
10363 10368 10375 10380 10386 10398 10408 10408 10407 10409 10415 10413 10415 10417 10418 10419 10420 10422 10422 10422 10423 10423 10424 10425 10427 10427 10428 10429 10430 10430 10431 10432 10433 10435 10435 10436 10437 10438 10439 10439 10440 10441 10445 10449
10341 10346 10353 10357 10363 10372 10380 10380 10380 10383 10387 10388 10388 10389 10390 10391 10390 10390 10390 10389 10390 10390 10390 10391 10392 10392 10393 10394 10395 10397 10398 10399 10399 10399 10400 10401 10403 10405 10407 10409 10410 10412 10413 10415
10319 10325 10330 10333 10339 10344 10349 10351 10353 10355 10358 10360 10360 10359 10358 10358 10357 10358 10358 10357 10357 10356 10355 10356 10356 10356 10356 10355 10355 10357 10360 10362 10361 10361 10361 10362 10365 10367 10370 10373 10376 10378 10380 10383
10300 10304 10309 10311 10316 10319 10324 10327 10328 10328 10327 10328 10329 10329 10329 10328 10327 10326 10324 10323 10323 10323 10321 10320 10319 10316 10314 10316 10317 10319 10322 10322 10319 10318 10319 10322 10325 10324 10326 10330 10334 10337 10339 10344
10280 10283 10285 10288 10291 10295 10295 10298 10301 10302 10303 10302 10301 10300 10299 10297 10296 10294 10292 10290 10288 10286 10285 10282 10278 10273 10272 10274 10273 10275 10280 10278 10275 10276 10275 10276 10278 10281 10282 10283 10287 10292 10295 10298
10259 10262 10265 10266 10269 10270 10271 10273 10275 10276 10275 10274 10272 10270 10267 10265 10262 10259 10257 10255 10253 10250 10246 10241 10235 10233 10233 10233 10228 10229 10232 10232 10231 10231 10229 10229 10229 10230 10233 10239 10242 10244 10252 10253